Home   Weather   Clacton-on-Sea   Past weeks
Flag for United Kingdom

Past Weather in Clacton-on-Sea, England, United Kingdom — Yesterday and Last 2 Weeks

Now
49 °F

Cool.


Feels Like: 47 °F
Forecast: 56 / 49 °F
Wind: 6 mph from Northwest

Location: Shoeburyness

Current Time: Oct 22, 2019 at 2:37:32 am

Latest Report: Oct 22, 2019 at 2:00 am


Visibility: 7 mi

Pressure: 30.19 "Hg

Humidity: 94%

Dew Point: 47 °F

Location of Clacton-on-SeaLocation

Past Weather in Clacton-on-Sea — Graph

°F

Clacton-on-Sea Temperature Yesterday

Maximum temperature yesterday: 53 °F (at 1:00 pm)
Minimum temperature yesterday: 50 °F (at 12:00 am)
Average temperature yesterday: 52 °F

High & Low Weather Summary for the Past Weeks

 TemperatureHumidityPressure
High65 °F (Oct 13, 1:00 pm)99% (Oct 13, 3:00 am)30.19 "Hg (Oct 13, 3:00 am)
Low40 °F (Oct 20, 8:00 am)55% (Oct 9, 3:00 pm)29.44 "Hg (Oct 18, 7:00 am)
Average55 °F85%29.74 "Hg
* Reported Oct 7 1:00 am — Oct 22 1:00 am, Clacton-on-Sea. Weather by CustomWeather, © 2019

Note: Actual official high and low records may vary slightly from our data, if they occured in-between our weather recording intervals... More about our weather records

Advertising

Clacton-on-Sea Weather History for the Previous 24 Hours

Scroll right to see more
 ConditionsComfort  
Time TempWeatherWind HumidityBarometerVisibility
1:00 am
Tue, Oct 22
50 °FCool.8 mph94%30.19 "Hg9 mi
12:00 am50 °FLight rain. Overcast.9 mph94%30.19 "Hg9 mi
11:00 pm
Mon, Oct 21
50 °FCool.10 mph94%30.18 "Hg10 mi
10:00 pm51 °FCool.9 mph93%30.17 "Hg11 mi
9:00 pm51 °FCool.8 mph93%30.15 "Hg14 mi
8:00 pm51 °FRain showers. Overcast.12 mph94%30.14 "Hg12 mi
7:00 pm51 °FRain showers. Overcast.13 mph94%30.13 "Hg8 mi
6:00 pm52 °FCool.10 mph94%30.10 "Hg15 mi
5:00 pm53 °FLight rain. Cloudy.15 mph94%30.08 "Hg12 mi
4:00 pm53 °FLight rain. Cloudy.14 mph93%30.08 "Hg14 mi
3:00 pm53 °FLight rain. Cloudy.15 mph93%30.06 "Hg16 mi
2:00 pm53 °FLight rain. Cloudy.17 mph92%30.05 "Hg12 mi
1:00 pm53 °FLight rain. Cloudy.21 mph93%30.03 "Hg6 mi
12:00 pm53 °FLight rain. Cloudy.20 mph95%30.02 "Hg8 mi
11:00 am52 °FLight rain. Cloudy.18 mph95%30.01 "Hg7 mi
10:00 am51 °FRain. Cloudy.17 mph96%29.99 "Hg7 mi
9:00 am51 °FRain. Cloudy.15 mph96%29.98 "Hg5 mi
8:00 am51 °FRain. Cloudy.10 mph95%29.96 "Hg4 mi
7:00 am51 °FLight rain. Overcast.16 mph97%29.94 "Hg6 mi
6:00 am51 °FRain showers. Overcast.16 mph95%29.93 "Hg4 mi
5:00 am51 °FLight rain. Overcast.16 mph95%29.91 "Hg5 mi
4:00 am51 °FRain showers. Overcast.15 mph94%29.91 "Hg13 mi
3:00 am51 °FCool.16 mph93%29.91 "Hg22 mi
2:00 am51 °FRain showers. Overcast.15 mph92%29.91 "Hg9 mi
Weather by CustomWeather, © 2019

See weather overview